Time,TemperatureF,DewpointF,PressureIn,WindDirection,WindDirectionDegrees,WindSpeedMPH,WindSpeedGustMPH,Humidity,HourlyPrecipIn,Conditions,Clouds,dailyrainin,SoftwareType,DateUTC
2016-08-25 00:04:00,81.1,75.4,30.05,SSW,200,5.0,6.0,83,0.00,,SKC,0.00,VWS V15.00,2016-08-25 05:04:00,
2016-08-25 00:09:00,81.1,75.8,30.05,South,171,0.0,5.0,84,0.00,,SKC,0.00,VWS V15.00,2016-08-25 05:09:00,
2016-08-25 00:14:00,80.9,75.6,30.05,South,171,0.0,5.0,84,0.00,,SKC,0.00,VWS V15.00,2016-08-25 05:14:00,
2016-08-25 00:19:00,80.9,75.6,30.05,SSE,164,0.0,6.0,84,0.00,,SKC,0.00,VWS V15.00,2016-08-25 05:19:00,
2016-08-25 00:24:00,80.7,75.4,30.05,South,171,0.0,6.0,84,0.00,,SKC,0.00,VWS V15.00,2016-08-25 05:24:00,
2016-08-25 00:29:00,80.7,75.4,30.05,SSE,155,1.0,6.0,84,0.00,,SKC,0.00,VWS V15.00,2016-08-25 05:29:00,
2016-08-25 00:34:00,80.5,75.2,30.05,SSE,161,0.0,6.0,84,0.00,,SKC,0.00,VWS V15.00,2016-08-25 05:34:00,
2016-08-25 00:39:00,80.5,75.6,30.06,WNW,287,0.0,6.0,85,0.00,,SKC,0.00,VWS V15.00,2016-08-25 05:39:00,
2016-08-25 00:44:00,80.5,75.6,30.06,SSE,155,4.0,6.0,85,0.00,,SKC,0.00,VWS V15.00,2016-08-25 05:44:00,
2016-08-25 00:49:00,80.3,75.4,30.06,SSW,205,0.0,6.0,85,0.00,,SKC,0.00,VWS V15.00,2016-08-25 05:49:00,
2016-08-25 00:54:00,80.3,75.4,30.06,South,185,4.0,6.0,85,0.00,,SKC,0.00,VWS V15.00,2016-08-25 05:54:00,
2016-08-25 00:59:00,80.1,75.2,30.06,South,181,4.0,6.0,85,0.00,,SKC,0.00,VWS V15.00,2016-08-25 05:59:00,
2016-08-25 01:04:00,80.1,75.5,30.06,SSE,162,0.0,6.0,86,0.00,,SKC,0.00,VWS V15.00,2016-08-25 06:04:00,
2016-08-25 01:09:00,79.9,75.3,30.06,SSE,166,2.0,7.0,86,0.00,,SKC,0.00,VWS V15.00,2016-08-25 06:09:00,
2016-08-25 01:14:00,79.9,75.3,30.06,SSW,196,2.0,7.0,86,0.00,,SKC,0.00,VWS V15.00,2016-08-25 06:14:00,
2016-08-25 01:19:00,79.9,75.3,30.06,South,173,4.0,7.0,86,0.00,,SKC,0.00,VWS V15.00,2016-08-25 06:19:00,
2016-08-25 01:24:00,79.8,75.2,30.06,South,171,3.0,7.0,86,0.00,,SKC,0.00,VWS V15.00,2016-08-25 06:24:00,
2016-08-25 01:29:00,79.8,75.6,30.06,South,182,1.0,7.0,87,0.00,,SKC,0.00,VWS V15.00,2016-08-25 06:29:00,
2016-08-25 01:34:00,79.6,75.4,30.06,SW,232,1.0,7.0,87,0.00,,SKC,0.00,VWS V15.00,2016-08-25 06:34:00,
2016-08-25 01:39:00,79.6,75.4,30.06,South,190,2.0,6.0,87,0.00,,SKC,0.00,VWS V15.00,2016-08-25 06:39:00,
2016-08-25 01:44:00,79.6,75.4,30.06,SW,223,0.0,6.0,87,0.00,,SKC,0.00,VWS V15.00,2016-08-25 06:44:00,
2016-08-25 01:54:00,79.4,75.2,30.06,SW,219,1.0,8.0,87,0.00,,SKC,0.00,VWS V15.00,2016-08-25 06:54:00,
2016-08-25 01:59:00,79.4,75.2,30.06,SSW,199,4.0,8.0,87,0.00,,SKC,0.00,VWS V15.00,2016-08-25 06:59:00,
2016-08-25 02:04:00,79.2,75.0,30.06,South,183,1.0,8.0,87,0.00,,SKC,0.00,VWS V15.00,2016-08-25 07:04:00,
2016-08-25 02:09:00,79.2,75.0,30.06,South,176,3.0,5.0,87,0.00,,SKC,0.00,VWS V15.00,2016-08-25 07:09:00,
2016-08-25 02:14:00,79.2,75.0,30.06,South,169,4.0,6.0,87,0.00,,SKC,0.00,VWS V15.00,2016-08-25 07:14:00,
2016-08-25 02:19:00,79.0,75.2,30.06,SSW,195,0.0,6.0,88,0.00,,SKC,0.00,VWS V15.00,2016-08-25 07:19:00,
2016-08-25 02:29:00,78.8,74.9,30.06,South,175,1.0,6.0,88,0.00,,SKC,0.00,VWS V15.00,2016-08-25 07:29:00,
2016-08-25 02:34:00,78.8,74.9,30.06,SSW,201,6.0,6.0,88,0.00,,SKC,0.00,VWS V15.00,2016-08-25 07:34:00,
2016-08-25 02:39:00,78.6,75.8,30.06,South,188,4.0,8.0,91,0.00,,SKC,0.00,VWS V15.00,2016-08-25 07:39:00,
2016-08-25 02:44:00,78.6,74.8,30.06,South,184,0.0,8.0,88,0.00,,SKC,0.00,VWS V15.00,2016-08-25 07:44:00,
2016-08-25 02:49:00,78.6,75.1,30.06,SW,219,0.0,8.0,89,0.00,,SKC,0.00,VWS V15.00,2016-08-25 07:49:00,
2016-08-25 02:54:00,78.5,75.0,30.06,WSW,253,0.0,8.0,89,0.00,,SKC,0.00,VWS V15.00,2016-08-25 07:54:00,
2016-08-25 02:59:00,78.5,75.0,30.06,SW,219,4.0,8.0,89,0.00,,SKC,0.00,VWS V15.00,2016-08-25 07:59:00,
2016-08-25 03:04:00,78.5,75.0,30.06,SSW,205,0.0,8.0,89,0.00,,SKC,0.00,VWS V15.00,2016-08-25 08:04:00,
2016-08-25 03:09:00,78.3,74.8,30.07,SSW,197,1.0,2.0,89,0.00,,SKC,0.00,VWS V15.00,2016-08-25 08:09:00,
2016-08-25 03:14:00,78.3,74.8,30.07,South,191,4.0,5.0,89,0.00,,SKC,0.00,VWS V15.00,2016-08-25 08:14:00,
2016-08-25 03:19:00,78.3,74.8,30.07,SW,229,0.0,6.0,89,0.00,,SKC,0.00,VWS V15.00,2016-08-25 08:19:00,
2016-08-25 03:24:00,78.1,74.6,30.06,SSW,196,5.0,6.0,89,0.00,,SKC,0.00,VWS V15.00,2016-08-25 08:24:00,
2016-08-25 03:29:00,78.1,74.6,30.06,SSW,210,1.0,6.0,89,0.00,,SKC,0.00,VWS V15.00,2016-08-25 08:29:00,
2016-08-25 03:34:00,78.1,74.6,30.06,South,188,2.0,6.0,89,0.00,,SKC,0.00,VWS V15.00,2016-08-25 08:34:00,
2016-08-25 03:39:00,77.9,74.7,30.07,South,180,1.0,4.0,90,0.00,,SKC,0.00,VWS V15.00,2016-08-25 08:39:00,
2016-08-25 03:44:00,77.9,74.7,30.07,South,189,2.0,5.0,90,0.00,,SKC,0.00,VWS V15.00,2016-08-25 08:44:00,
2016-08-25 03:49:00,77.9,74.7,30.07,South,181,0.0,5.0,90,0.00,,SKC,0.00,VWS V15.00,2016-08-25 08:49:00,
2016-08-25 03:54:00,77.7,74.5,30.07,South,180,0.0,5.0,90,0.00,,SKC,0.00,VWS V15.00,2016-08-25 08:54:00,
2016-08-25 03:59:00,77.7,74.5,30.07,South,175,1.0,5.0,90,0.00,,SKC,0.00,VWS V15.00,2016-08-25 08:59:00,
2016-08-25 04:04:00,77.7,74.5,30.07,SW,236,0.0,5.0,90,0.00,,SKC,0.00,VWS V15.00,2016-08-25 09:04:00,
2016-08-25 04:09:00,77.6,74.4,30.07,SSE,157,1.0,4.0,90,0.00,,SKC,0.00,VWS V15.00,2016-08-25 09:09:00,
2016-08-25 04:14:00,77.6,74.4,30.07,SSE,157,0.0,4.0,90,0.00,,SKC,0.00,VWS V15.00,2016-08-25 09:14:00,
2016-08-25 04:19:00,77.6,74.4,30.07,South,190,1.0,5.0,90,0.00,,SKC,0.00,VWS V15.00,2016-08-25 09:19:00,
2016-08-25 04:29:00,77.4,74.2,30.07,South,173,2.0,5.0,90,0.00,,SKC,0.00,VWS V15.00,2016-08-25 09:29:00,
2016-08-25 04:34:00,77.4,74.2,30.07,South,184,1.0,5.0,90,0.00,,SKC,0.00,VWS V15.00,2016-08-25 09:34:00,
2016-08-25 04:39:00,77.4,74.2,30.07,South,184,0.0,1.0,90,0.00,,SKC,0.00,VWS V15.00,2016-08-25 09:39:00,
2016-08-25 04:44:00,77.4,74.6,30.07,South,184,0.0,2.0,91,0.00,,SKC,0.00,VWS V15.00,2016-08-25 09:44:00,
2016-08-25 04:49:00,77.4,74.6,30.07,South,184,1.0,2.0,91,0.00,,SKC,0.00,VWS V15.00,2016-08-25 09:49:00,
2016-08-25 04:54:00,77.2,74.4,30.07,South,184,1.0,2.0,91,0.00,,SKC,0.00,VWS V15.00,2016-08-25 09:54:00,
2016-08-25 04:59:00,77.2,74.4,30.07,South,184,2.0,2.0,91,0.00,,SKC,0.00,VWS V15.00,2016-08-25 09:59:00,
2016-08-25 05:04:00,77.2,74.4,30.07,South,184,2.0,2.0,91,0.00,,SKC,0.00,VWS V15.00,2016-08-25 10:04:00,
2016-08-25 05:09:00,77.2,74.4,30.08,South,174,2.0,5.0,91,0.00,,SKC,0.00,VWS V15.00,2016-08-25 10:09:00,
2016-08-25 05:14:00,77.2,74.4,30.08,South,174,0.0,5.0,91,0.00,,SKC,0.00,VWS V15.00,2016-08-25 10:14:00,
2016-08-25 05:19:00,77.0,74.2,30.08,South,173,0.0,5.0,91,0.00,,SKC,0.00,VWS V15.00,2016-08-25 10:19:00,
2016-08-25 05:24:00,77.0,74.2,30.08,South,173,2.0,5.0,91,0.00,,SKC,0.00,VWS V15.00,2016-08-25 10:24:00,
2016-08-25 05:29:00,77.0,74.5,30.08,South,186,3.0,5.0,92,0.00,,SKC,0.00,VWS V15.00,2016-08-25 10:29:00,
2016-08-25 05:34:00,77.0,74.2,30.08,South,182,1.0,5.0,91,0.00,,SKC,0.00,VWS V15.00,2016-08-25 10:34:00,
2016-08-25 05:39:00,76.8,74.3,30.08,South,172,0.0,5.0,92,0.00,,SKC,0.00,VWS V15.00,2016-08-25 10:39:00,
2016-08-25 05:44:00,76.8,74.3,30.08,South,169,1.0,5.0,92,0.00,,SKC,0.00,VWS V15.00,2016-08-25 10:44:00,
2016-08-25 05:49:00,76.8,74.3,30.08,South,171,1.0,5.0,92,0.00,,SKC,0.00,VWS V15.00,2016-08-25 10:49:00,
2016-08-25 05:54:00,76.8,74.3,30.07,South,182,2.0,7.0,92,0.00,,SKC,0.00,VWS V15.00,2016-08-25 10:54:00,
2016-08-25 05:59:00,76.7,74.2,30.07,South,180,0.0,7.0,92,0.00,,SKC,0.00,VWS V15.00,2016-08-25 10:59:00,
2016-08-25 06:04:00,76.7,74.2,30.07,South,173,1.0,7.0,92,0.00,,SKC,0.00,VWS V15.00,2016-08-25 11:04:00,
2016-08-25 06:09:00,76.7,74.2,30.08,SSE,155,2.0,6.0,92,0.00,,SKC,0.00,VWS V15.00,2016-08-25 11:09:00,
2016-08-25 06:19:00,76.7,74.2,30.08,South,175,0.0,6.0,92,0.00,,SKC,0.00,VWS V15.00,2016-08-25 11:19:00,
2016-08-25 06:24:00,76.7,74.2,30.08,SSE,155,5.0,6.0,92,0.00,,SKC,0.00,VWS V15.00,2016-08-25 11:24:00,
2016-08-25 06:29:00,76.7,74.2,30.08,South,180,1.0,8.0,92,0.00,,SKC,0.00,VWS V15.00,2016-08-25 11:29:00,
2016-08-25 06:34:00,76.7,74.2,30.08,South,169,5.0,10.0,92,0.00,,SKC,0.00,VWS V15.00,2016-08-25 11:34:00,
2016-08-25 06:39:00,76.7,74.2,30.08,South,173,5.0,8.0,92,0.00,,SKC,0.00,VWS V15.00,2016-08-25 11:39:00,
2016-08-25 06:44:00,76.7,74.2,30.08,SW,215,2.0,8.0,92,0.00,,SKC,0.00,VWS V15.00,2016-08-25 11:44:00,
2016-08-25 06:49:00,76.5,74.0,30.08,SSW,204,5.0,8.0,92,0.00,,SKC,0.00,VWS V15.00,2016-08-25 11:49:00,
2016-08-25 06:54:00,76.5,74.0,30.08,South,169,4.0,8.0,92,0.00,,SKC,0.00,VWS V15.00,2016-08-25 11:54:00,
2016-08-25 06:59:00,76.7,74.2,30.08,South,177,5.0,8.0,92,0.00,,SKC,0.00,VWS V15.00,2016-08-25 11:59:00,
2016-08-25 07:04:00,76.7,74.2,30.08,South,186,3.0,8.0,92,0.00,,SKC,0.00,VWS V15.00,2016-08-25 12:04:00,
2016-08-25 07:09:00,76.7,74.2,30.08,South,174,2.0,10.0,92,0.00,,SKC,0.00,VWS V15.00,2016-08-25 12:09:00,
2016-08-25 07:14:00,76.7,74.2,30.08,SW,232,2.0,10.0,92,0.00,,SKC,0.00,VWS V15.00,2016-08-25 12:14:00,
2016-08-25 07:19:00,76.7,74.2,30.08,South,169,6.0,10.0,92,0.00,,SKC,0.00,VWS V15.00,2016-08-25 12:19:00,
2016-08-25 07:24:00,76.7,74.2,30.09,SW,214,4.0,10.0,92,0.00,,SKC,0.00,VWS V15.00,2016-08-25 12:24:00,
2016-08-25 07:29:00,76.7,74.2,30.09,SSE,165,6.0,10.0,92,0.00,,SKC,0.00,VWS V15.00,2016-08-25 12:29:00,
2016-08-25 07:34:00,76.8,74.3,30.09,SSW,210,1.0,10.0,92,0.00,,SKC,0.00,VWS V15.00,2016-08-25 12:34:00,
2016-08-25 07:39:00,76.8,74.3,30.09,SW,231,1.0,7.0,92,0.00,,SKC,0.00,VWS V15.00,2016-08-25 12:39:00,
2016-08-25 07:44:00,77.0,74.5,30.09,WSW,243,2.0,9.0,92,0.00,,SKC,0.00,VWS V15.00,2016-08-25 12:44:00,
2016-08-25 07:49:00,77.0,74.5,30.09,South,169,2.0,9.0,92,0.00,,SKC,0.00,VWS V15.00,2016-08-25 12:49:00,
2016-08-25 07:54:00,77.2,74.7,30.10,WSW,249,1.0,9.0,92,0.00,,SKC,0.00,VWS V15.00,2016-08-25 12:54:00,
2016-08-25 07:59:00,77.2,74.7,30.10,West,259,1.0,9.0,92,0.00,,SKC,0.00,VWS V15.00,2016-08-25 12:59:00,
2016-08-25 08:04:00,77.4,74.9,30.10,SSE,158,2.0,9.0,92,0.00,,SKC,0.00,VWS V15.00,2016-08-25 13:04:00,
2016-08-25 08:09:00,77.6,75.1,30.10,South,184,3.0,5.0,92,0.00,,SKC,0.00,VWS V15.00,2016-08-25 13:09:00,
2016-08-25 08:14:00,77.6,75.1,30.10,SSW,200,4.0,7.0,92,0.00,,SKC,0.00,VWS V15.00,2016-08-25 13:14:00,
2016-08-25 08:24:00,77.9,75.1,30.10,SW,234,5.0,7.0,91,0.00,,SKC,0.00,VWS V15.00,2016-08-25 13:24:00,
2016-08-25 08:29:00,78.1,75.3,30.10,SW,216,2.0,7.0,91,0.00,,SKC,0.00,VWS V15.00,2016-08-25 13:29:00,
2016-08-25 08:34:00,78.3,75.5,30.10,SW,227,4.0,7.0,91,0.00,,SKC,0.00,VWS V15.00,2016-08-25 13:34:00,
2016-08-25 08:39:00,78.5,75.7,30.10,South,169,2.0,6.0,91,0.00,,SKC,0.00,VWS V15.00,2016-08-25 13:39:00,
2016-08-25 08:44:00,78.6,75.4,30.10,SSE,155,3.0,6.0,90,0.00,,SKC,0.00,VWS V15.00,2016-08-25 13:44:00,
2016-08-25 08:49:00,78.8,75.6,30.10,SW,224,1.0,8.0,90,0.00,,SKC,0.00,VWS V15.00,2016-08-25 13:49:00,
2016-08-25 08:54:00,79.0,75.5,30.10,SSE,162,5.0,8.0,89,0.00,,SKC,0.00,VWS V15.00,2016-08-25 13:54:00,